SCP
1 1 1 1 1 1 1 1 2 2 2 2 1 1 1 1 1 1 1 0 0 0 0 0 0 0 0 0 0 0 0 0 0 0 0 0 0 0 0 0 0 0 0
1 1 1 1 1 1 1 1 2 2 2 2 1 1 1 1 1 1 1 1 0 0 0 0 0 0 0 0 0 0 0 0 0 0 0 0 0 0 0 0 0 0 0
2 2 1 1 1 1 1 1 2 1 2 2 2 1 1 1 1 1 1 1 1 1 0 0 0 0 0 0 0 0 0 0 0 0 0 0 0 0 0 0 0 0 0
3 2 2 2 1 1 1 2 2 1 1 2 2 1 1 1 1 1 1 1 1 1 0 0 0 0 0 0 0 0 0 0 0 0 0 0 0 0 0 0 0 0 0
3 3 3 3 2 2 2 2 2 2 1 1 2 2 1 1 1 1 1 1 1 1 1 1 1 1 1 0 0 0 0 0 0 0 0 0 0 0 0 0 0 0 0
4 4 4 4 3 2 2 2 2 2 1 1 2 1 1 1 1 1 1 1 1 1 1 1 1 1 1 1 1 0 0 0 0 0 0 0 1 1 0 0 0 0 0
6 5 5 5 4 3 3 3 2 2 2 2 2 2 1 1 1 1 1 1 1 1 1 1 1 1 1 1 1 1 1 0 0 0 0 0 1 1 1 0 0 0 0
7 7 6 6 5 4 4 3 2 2 2 2 2 2 2 2 1 1 2 1 1 1 1 1 1 1 1 1 1 1 1 1 1 0 0 0 1 1 1 1 0 0 0
7 7 6 6 5 4 4 3 3 2 2 2 2 1 2 1 1 1 1 1 1 1 1 1 1 1 1 1 1 1 1 1 1 1 0 0 0 1 1 1 1 0 0
5 5 6 6 5 4 4 4 3 2 2 2 1 1 1 1 1 1 1 1 1 1 1 1 1 1 1 1 1 1 1 1 1 1 1 0 0 1 1 1 1 1 1
5 5 5 6 5 4 4 3 3 3 2 2 2 1 1 1 1 1 1 1 1 1 1 1 1 1 1 1 1 1 1 1 1 1 1 1 1 1 1 1 1 1 1
6 6 5 5 5 5 4 3 3 3 3 2 2 2 1 1 1 1 1 1 1 1 1 1 1 1 1 1 1 1 1 1 1 1 1 1 1 1 1 1 1 1 1
5 5 5 5 5 5 4 3 3 3 3 2 2 2 2 1 1 1 1 1 1 1 1 1 1 1 1 1 1 1 1 1 1 1 1 1 1 1 1 1 1 1 1
4 4 5 5 5 4 4 4 3 3 3 3 2 2 2 1 1 1 1 1 1 1 1 1 1 1 1 1 1 1 1 1 1 1 1 1 1 1 1 1 1 1 1
3 4 4 5 4 3 3 4 4 3 3 3 2 2 2 1 1 1 1 1 1 1 1 1 1 1 1 1 1 1 1 1 1 1 1 1 1 1 1 1 1 1 1
3 3 4 4 3 3 3 3 3 3 3 2 2 2 2 1 1 1 1 1 1 1 1 1 2 2 2 1 1 1 1 1 1 1 1 1 1 1 2 2 1 1 1
3 2 3 3 3 2 2 3 3 3 3 2 2 1 1 1 1 2 1 1 1 1 1 2 2 2 2 2 1 1 1 1 1 1 1 1 1 1 2 2 1 1 1
3 2 2 2 2 2 2 2 2 2 2 2 1 1 1 1 1 1 1 1 1 1 1 2 2 2 2 2 1 1 1 0 1 1 1 1 1 1 1 1 1 1 1
2 2 2 2 2 2 2 2 2 1 1 1 1 1 1 1 1 1 1 1 1 1 1 1 2 2 2 2 1 1 1 0 0 1 1 1 1 1 1 1 1 1 1
2 2 2 2 2 2 2 2 2 1 1 1 1 1 1 1 1 1 1 1 1 1 1 1 1 1 1 2 1 1 1 0 1 1 0 1 1 1 1 1 1 1 1
1 1 1 2 2 2 2 2 2 1 1 1 1 1 1 1 1 1 1 1 1 1 1 1 1 1 1 1 1 1 1 1 1 1 1 1 1 1 1 1 1 1 1
1 1 1 1 1 1 1 1 1 1 1 1 1 1 1 1 1 1 1 1 1 1 1 1 1 1 1 1 1 1 1 1 1 1 1 1 1 1 1 1 1 1 1
0 1 1 1 1 1 1 1 1 1 1 1 1 0 1 1 1 1 1 1 1 1 1 1 1 1 1 1 1 1 1 1 1 0 1 0 0 0 0 1 1 1 1
0 1 1 1 0 0 1 1 1 1 1 0 0 0 0 0 1 1 1 1 1 1 1 1 1 1 1 1 1 1 1 1 1 0 0 0 0 0 0 0 1 1 1
1 1 1 1 0 0 0 0 0 0 0 0 0 0 0 0 0 0 1 1 1 1 1 1 1 1 1 1 1 2 1 1 1 0 0 0 0 0 0 0 1 1 1
1 1 1 0 0 0 0 0 0 0 0 0 0 0 0 0 0 0 0 1 1 1 1 0 0 0 1 1 1 1 2 1 1 1 0 0 1 1 0 0 1 1 1
Wind_Speed
7 10 16 17 16 16 18 19 19 19 19 19 19 19 18 18 17 16 15 14 13 12 12 12 12 13 13 14 14 15 15 15 15 15 14 14 14 13 14 14 13 10 14
12 12 17 17 17 17 18 19 19 19 19 19 18 18 18 17 16 15 14 13 13 12 12 12 12 12 13 13 14 14 14 14 13 13 14 13 13 13 13 13 12 9 13
14 12 15 17 18 18 19 19 18 19 18 18 18 17 16 16 15 14 14 13 12 12 12 12 12 12 12 12 13 13 13 12 12 12 12 8 9 12 12 12 12 12 12
14 11 12 17 18 19 19 19 18 18 18 18 17 17 16 15 14 13 13 12 12 11 11 11 11 11 11 12 12 12 12 11 11 11 6 6 7 11 12 12 12 12 12
12 10 13 18 17 18 18 18 18 18 17 17 16 15 15 14 13 12 12 12 11 11 11 11 11 11 11 10 10 10 11 11 10 8 5 5 5 11 12 12 12 11 11
11 9 12 16 17 17 17 18 17 17 16 16 15 14 13 13 12 11 11 11 11 10 10 10 10 10 9 9 9 8 8 9 9 6 5 4 5 10 12 12 12 11 10
11 8 10 14 16 16 16 16 16 16 15 14 14 13 12 11 11 10 10 10 10 9 9 9 9 9 8 8 7 7 7 9 6 5 5 5 5 10 11 11 11 11 10
11 9 9 14 15 15 15 15 14 14 13 12 12 11 11 10 10 9 9 9 8 8 8 8 8 7 7 6 6 5 5 7 7 6 6 5 7 10 11 11 11 11 10
9 9 7 7 9 13 14 13 13 12 12 11 10 10 10 10 9 9 8 8 7 7 7 7 7 6 6 5 5 5 5 6 5 4 6 5 7 10 11 11 11 11 10
8 6 6 6 5 5 7 11 12 12 11 11 10 10 10 9 9 8 7 6 7 7 6 6 6 5 4 4 4 4 5 5 4 4 3 5 10 11 11 12 11 11 10
7 5 5 4 5 5 5 7 8 10 10 9 8 9 7 3 3 4 5 6 6 6 6 5 5 4 3 2 2 3 3 2 3 2 3 7 11 11 11 12 12 12 11
6 5 4 4 4 4 4 4 3 3 4 4 3 4 3 3 2 3 4 6 6 6 6 5 4 3 2 1 0 1 1 2 2 2 3 8 10 11 12 12 12 12 12
5 5 4 3 4 4 2 3 2 2 2 2 3 3 3 2 1 1 1 2 2 3 2 2 1 1 1 1 1 1 1 1 1 2 3 7 9 11 12 12 12 12 12
5 4 3 3 3 3 3 3 3 2 2 2 2 2 2 2 1 1 1 1 1 1 1 1 1 1 2 2 2 2 2 2 2 2 3 7 8 10 12 12 12 12 12
5 5 3 3 3 2 3 2 3 2 2 2 2 2 2 2 2 2 1 1 2 1 2 2 2 2 2 2 2 3 3 3 3 2 2 5 6 9 10 11 12 12 11
4 4 3 3 3 3 2 2 2 2 2 2 1 1 2 2 2 2 2 2 2 2 2 2 3 2 2 1 2 2 2 2 2 2 2 2 5 7 8 9 10 11 12
4 4 3 2 2 3 3 2 2 1 1 1 1 1 2 2 2 2 2 2 2 2 2 2 2 1 1 1 2 2 1 2 2 2 2 2 2 5 7 8 8 9 11
4 4 4 3 3 3 3 2 2 1 1 1 1 0 1 2 2 2 2 2 2 1 2 2 2 1 2 2 1 1 1 1 2 2 2 2 2 2 5 7 8 8 10
4 4 3 4 4 3 2 2 2 2 2 1 0 0 1 1 2 2 2 2 2 2 2 2 2 2 2 2 2 1 1 1 1 1 1 1 2 2 2 5 7 8 9
5 5 4 4 4 2 2 2 2 2 2 1 1 0 1 1 1 1 1 2 2 2 2 2 3 2 2 2 1 0 0 1 1 1 1 1 1 2 2 3 3 5 8
5 6 6 5 5 4 3 2 1 1 1 2 2 2 1 1 1 1 1 1 2 2 3 3 2 3 2 2 1 0 0 0 1 1 1 0 0 1 1 2 2 2 3
5 5 5 5 5 4 2 1 1 1 1 1 2 3 3 2 2 1 1 1 1 2 2 3 3 2 2 3 2 1 1 1 1 1 1 1 1 1 1 2 2 3 2
6 5 4 5 5 5 4 2 2 2 2 2 2 3 3 3 2 1 1 0 1 1 2 2 3 4 3 3 2 3 3 3 1 0 1 1 1 1 1 1 2 2 2
5 5 5 5 5 5 5 4 3 1 1 2 2 2 3 3 3 3 2 1 1 1 1 2 2 2 3 3 2 2 1 2 2 1 0 0 1 1 1 1 2 2 2
5 5 5 5 6 5 4 4 3 2 1 1 2 2 3 3 4 4 3 2 2 1 1 1 1 2 2 3 3 2 2 1 2 2 2 1 1 1 1 1 2 2 2
5 5 5 6 6 5 5 5 4 3 2 3 3 3 3 3 3 5 4 3 3 2 2 1 1 2 2 3 3 3 3 3 3 3 3 2 1 1 2 2 2 2 2
Wind_Direction
138 146 142 137 130 121 114 110 110 111 113 117 120 122 125 127 128 129 128 125 121 116 111 107 106 106 109 112 115 118 120 121 124 126 126 122 119 117 115 113 111 111 113
137 144 141 137 131 124 118 115 114 113 115 117 119 122 125 127 128 130 129 127 124 119 115 113 112 113 115 118 120 122 124 125 128 130 128 125 122 119 116 116 116 118 117
133 139 139 138 133 127 123 120 118 117 118 118 120 122 124 126 128 129 129 127 124 121 119 117 118 119 121 123 126 127 128 127 127 126 121 118 123 125 125 123 121 121 121
132 135 140 139 134 130 127 124 123 122 122 122 123 124 126 127 127 128 128 127 124 122 121 120 121 123 125 127 130 131 131 128 124 120 110 124 131 133 132 129 127 125 124
129 132 143 139 136 133 130 129 128 127 127 127 127 128 128 128 127 128 129 129 126 124 123 123 124 126 128 130 133 135 137 137 133 121 112 115 124 140 139 136 134 131 129
124 128 141 139 137 135 134 134 134 133 132 132 131 131 130 129 129 130 131 131 129 127 127 126 126 128 130 133 137 141 145 145 132 130 129 131 138 148 147 144 140 137 134
123 128 139 139 138 138 138 138 139 138 137 136 136 136 134 133 133 133 134 135 134 133 132 130 130 130 132 136 141 145 150 149 141 145 149 152 160 158 153 151 146 145 143
130 129 133 142 143 142 142 143 143 142 141 141 141 141 140 139 137 137 137 137 138 138 138 137 136 137 138 138 139 141 150 152 149 158 161 164 173 168 162 158 156 154 152
120 122 124 136 142 143 144 147 147 147 146 145 145 146 147 147 146 145 143 144 144 145 146 146 147 147 145 143 142 145 146 148 141 157 170 172 183 179 172 168 166 162 159
114 115 119 124 127 133 143 152 154 154 154 154 155 157 158 158 157 158 153 157 159 160 160 159 159 159 159 156 153 154 150 135 147 162 167 182 189 187 180 177 175 172 170
111 104 106 118 125 129 138 156 156 159 161 160 162 166 159 149 154 162 170 175 176 177 177 174 172 173 173 178 173 159 143 134 153 171 178 193 193 193 186 183 181 179 177
122 114 109 119 124 127 144 137 136 149 153 152 152 158 148 149 165 172 188 193 193 194 193 190 187 185 179 150 189 163 139 160 168 190 202 203 199 197 191 188 187 185 183
129 127 123 127 128 131 135 137 137 134 142 151 158 154 148 148 158 169 166 204 201 199 188 191 178 158 172 177 175 182 184 184 190 206 211 211 208 203 198 196 194 193 191
108 107 117 120 126 129 136 142 146 146 157 166 166 156 152 158 177 186 193 201 183 168 169 174 171 198 204 199 199 204 208 213 214 214 222 217 214 211 207 201 200 197 192
124 124 111 115 126 132 130 142 154 155 165 167 166 173 169 178 198 198 205 209 209 195 189 190 197 217 222 222 220 216 216 221 221 217 229 224 214 209 210 206 201 197 192
111 109 116 120 128 120 121 135 142 147 150 148 163 184 182 186 198 206 210 213 213 206 200 195 202 212 220 224 240 233 220 223 227 216 216 235 233 215 207 206 203 197 191
84 74 84 95 95 105 106 96 93 104 124 139 168 187 191 194 206 209 209 215 221 210 193 189 192 183 198 225 248 242 213 217 222 225 222 225 235 225 212 203 195 193 189
75 66 58 67 62 72 89 95 89 96 101 123 163 201 222 217 211 209 218 223 214 197 195 197 183 188 201 206 221 238 234 219 230 231 222 222 225 231 221 203 193 191 189
73 71 62 59 57 58 76 88 83 84 84 72 47 322 278 258 227 206 230 233 201 200 203 209 188 183 193 210 215 212 226 246 249 259 243 225 218 211 206 200 196 193 192
65 60 56 58 54 51 73 75 71 63 48 43 30 319 339 315 263 215 232 241 203 207 215 207 198 188 182 177 187 204 221 266 267 265 260 244 224 213 194 181 183 194 192
57 51 44 43 35 39 41 44 60 52 13 7 359 2 33 355 332 255 260 243 211 215 218 203 188 180 187 156 132 165 300 257 249 247 233 166 211 196 169 166 163 172 184
58 52 44 41 38 39 36 35 65 52 53 13 343 354 5 9 346 289 245 240 228 216 209 197 177 177 188 174 158 169 246 272 254 252 219 184 214 169 166 167 162 168 170
59 52 50 39 36 34 26 34 40 33 25 14 352 342 342 351 353 349 329 277 239 210 210 207 197 198 198 193 185 178 190 219 229 277 230 193 177 150 158 128 129 147 145
58 53 53 42 35 29 31 42 49 45 18 341 326 317 335 358 8 12 8 6 334 239 221 223 209 216 197 203 202 209 210 176 184 211 304 165 136 132 145 135 125 115 122
59 57 50 46 38 30 36 44 50 43 14 336 338 339 348 2 10 9 11 10 5 345 294 244 220 221 215 210 201 188 193 210 202 182 201 173 115 49 60 99 105 108 111
57 51 46 48 39 31 40 44 47 38 14 1 356 349 351 358 3 3 4 10 6 352 329 279 237 234 238 231 219 208 197 193 192 181 177 166 149 83 53 63 85 85 91